| time (UTC) | temp C | wind direction | speed KPH | gust KPH | rain 1hr cm | rain 24hr cm | rain mn cm | humidity % | barometer mb |
| 20260510022708 | 10 | 298 | 0.0 | 1.6 | 0.00 | 0.79 | 0.79 | 92 | 1008.2 |
| 20260510022203 | 10 | 276 | 0.0 | 0.0 | 0.00 | 0.79 | 0.79 | 92 | 1008.2 |
| 20260510021658 | 10 | 279 | 0.0 | 0.0 | 0.00 | 0.79 | 0.79 | 91 | 1008.1 |
| 20260510021155 | 10 | 116 | 1.6 | 3.2 | 0.00 | 0.79 | 0.79 | 91 | 1008.2 |
| 20260510020650 | 10 | 248 | 3.2 | 3.2 | 0.00 | 0.79 | 0.79 | 90 | 1008.1 |
| 20260510020145 | 11 | 278 | 4.8 | 4.8 | 0.00 | 0.79 | 0.79 | 90 | 1008.1 |
| 20260510015641 | 11 | 266 | 1.6 | 3.2 | 0.00 | 0.79 | 0.79 | 89 | 1008.1 |
| 20260510015139 | 11 | 269 | 0.0 | 0.0 | 0.00 | 0.79 | 0.79 | 88 | 1007.9 |
| 20260510014638 | 11 | 209 | 3.2 | 3.2 | 0.00 | 0.79 | 0.79 | 88 | 1007.7 |
| 20260510014136 | 11 | 223 | 6.4 | 8.0 | 0.00 | 0.79 | 0.79 | 88 | 1007.9 |
| 20260510013631 | 11 | 270 | 4.8 | 4.8 | 0.00 | 0.79 | 0.79 | 87 | 1007.9 |
| 20260510013127 | 12 | 212 | 6.4 | 8.0 | 0.00 | 0.79 | 0.79 | 87 | 1008.0 |
| 20260510012626 | 12 | 211 | 11.3 | 12.9 | 0.00 | 0.79 | 0.79 | 86 | 1007.8 |
| 20260510012123 | 12 | 202 | 8.0 | 9.7 | 0.00 | 0.79 | 0.79 | 86 | 1008.0 |
| 20260510011617 | 12 | 251 | 9.7 | 11.3 | 0.00 | 0.79 | 0.79 | 87 | 1007.9 |
| 20260510011113 | 12 | 194 | 4.8 | 4.8 | 0.00 | 0.79 | 0.79 | 87 | 1007.7 |
| 20260510010609 | 12 | 203 | 9.7 | 11.3 | 0.00 | 0.79 | 0.79 | 86 | 1007.6 |
| 20260510010107 | 12 | 205 | 11.3 | 12.9 | 0.00 | 0.79 | 0.79 | 87 | 1007.5 |
| 20260510005602 | 12 | 214 | 8.0 | 8.0 | 0.00 | 0.79 | 0.79 | 86 | 1007.5 |
| 20260510005100 | 12 | 217 | 9.7 | 11.3 | 0.00 | 0.79 | 0.79 | 86 | 1007.4 |
| 20260510004558 | 12 | 197 | 8.0 | 11.3 | 0.00 | 0.79 | 0.79 | 86 | 1007.4 |
| 20260510004056 | 12 | 197 | 4.8 | 4.8 | 0.00 | 0.79 | 0.79 | 87 | 1007.1 |
| 20260510003552 | 12 | 175 | 4.8 | 4.8 | 0.00 | 0.79 | 0.79 | 87 | 1007.3 |
| 20260510003048 | 12 | 195 | 9.7 | 11.3 | 0.00 | 0.79 | 0.79 | 86 | 1007.2 |
| 20260510002543 | 12 | 195 | 12.9 | 14.5 | 0.00 | 0.79 | 0.79 | 87 | 1007.3 |
| 20260510002040 | 12 | 247 | 4.8 | 4.8 | 0.00 | 0.79 | 0.79 | 86 | 1007.4 |
| 20260510001537 | 12 | 175 | 11.3 | 12.9 | 0.00 | 0.79 | 0.79 | 86 | 1007.2 |
| 20260510001036 | 12 | 198 | 6.4 | 8.0 | 0.00 | 0.79 | 0.79 | 86 | 1006.8 |
| 20260510000530 | 12 | 212 | 6.4 | 8.0 | 0.00 | 0.79 | 0.79 | 85 | 1007.2 |
| 20260510000027 | 12 | 196 | 8.0 | 9.7 | 0.00 | 0.79 | 0.79 | 85 | 1007.0 |
| 20260509235524 | 12 | 165 | 8.0 | 11.3 | 0.00 | 0.79 | 0.79 | 85 | 1006.9 |
| 20260509235021 | 12 | 222 | 6.4 | 8.0 | 0.00 | 0.79 | 0.79 | 84 | 1007.1 |
| 20260509234517 | 12 | 216 | 9.7 | 11.3 | 0.00 | 0.79 | 0.79 | 85 | 1007.0 |
| 20260509234016 | 13 | 222 | 11.3 | 12.9 | 0.00 | 0.79 | 0.79 | 84 | 1007.0 |
| 20260509233513 | 13 | 219 | 4.8 | 4.8 | 0.00 | 0.79 | 0.79 | 84 | 1006.9 |
| 20260509233010 | 13 | 213 | 8.0 | 9.7 | 0.00 | 0.79 | 0.79 | 84 | 1006.8 |
| 20260509232506 | 13 | 204 | 11.3 | 11.3 | 0.00 | 0.79 | 0.79 | 84 | 1006.6 |
| 20260509232003 | 13 | 211 | 9.7 | 11.3 | 0.00 | 0.79 | 0.79 | 84 | 1006.7 |
| 20260509231459 | 12 | 196 | 11.3 | 11.3 | 0.00 | 0.79 | 0.79 | 85 | 1006.7 |
| 20260509230957 | 12 | 199 | 9.7 | 11.3 | 0.00 | 0.79 | 0.79 | 86 | 1006.8 |
| 20260509230453 | 12 | 233 | 9.7 | 11.3 | 0.00 | 0.79 | 0.79 | 87 | 1006.8 |
| 20260509225950 | 12 | 186 | 9.7 | 11.3 | 0.00 | 0.79 | 0.79 | 87 | 1007.0 |
| 20260509225446 | 12 | 205 | 8.0 | 11.3 | 0.00 | 0.79 | 0.79 | 87 | 1006.9 |
| 20260509224942 | 12 | 223 | 4.8 | 4.8 | 0.00 | 0.79 | 0.79 | 87 | 1007.2 |
| 20260509224437 | 12 | 220 | 4.8 | 4.8 | 0.00 | 0.79 | 0.79 | 87 | 1007.2 |
| 20260509223935 | 12 | 206 | 8.0 | 11.3 | 0.00 | 0.79 | 0.79 | 86 | 1007.3 |
| 20260509223431 | 12 | 197 | 9.7 | 11.3 | 0.00 | 0.79 | 0.79 | 87 | 1007.2 |
| 20260509222929 | 12 | 200 | 6.4 | 9.7 | 0.00 | 0.79 | 0.79 | 87 | 1006.9 |
| 20260509222424 | 12 | 198 | 6.4 | 8.0 | 0.00 | 0.79 | 0.79 | 87 | 1006.8 |
| 20260509221920 | 12 | 202 | 6.4 | 8.0 | 0.00 | 0.79 | 0.79 | 86 | 1007.0 |
| 20260509221417 | 12 | 186 | 12.9 | 14.5 | 0.00 | 0.79 | 0.79 | 86 | 1006.9 |
| 20260509220913 | 12 | 206 | 9.7 | 12.9 | 0.00 | 0.79 | 0.79 | 86 | 1007.0 |
| 20260509220409 | 12 | 207 | 8.0 | 9.7 | 0.00 | 0.79 | 0.79 | 87 | 1006.9 |
| 20260509215904 | 12 | 216 | 8.0 | 9.7 | 0.00 | 0.79 | 0.79 | 87 | 1007.0 |
| 20260509215400 | 12 | 211 | 9.7 | 14.5 | 0.00 | 0.79 | 0.79 | 87 | 1006.7 |
| 20260509214858 | 12 | 191 | 11.3 | 12.9 | 0.00 | 0.79 | 0.79 | 87 | 1007.1 |
| 20260509214355 | 12 | 212 | 9.7 | 9.7 | 0.00 | 0.79 | 0.79 | 88 | 1007.2 |
| 20260509213852 | 12 | 197 | 11.3 | 12.9 | 0.00 | 0.79 | 0.79 | 89 | 1007.1 |
| 20260509213347 | 12 | 217 | 8.0 | 9.7 | 0.00 | 0.79 | 0.79 | 89 | 1007.1 |
| 20260509212846 | 12 | 214 | 8.0 | 12.9 | 0.00 | 0.79 | 0.79 | 90 | 1007.2 |
| 20260509212343 | 12 | 212 | 8.0 | 9.7 | 0.00 | 0.79 | 0.79 | 90 | 1007.1 |
| 20260509211838 | 12 | 223 | 16.1 | 20.9 | 0.00 | 0.79 | 0.79 | 90 | 1007.3 |
| 20260509211334 | 12 | 189 | 9.7 | 11.3 | 0.00 | 0.79 | 0.79 | 90 | 1007.3 |
| 20260509210831 | 12 | 209 | 9.7 | 11.3 | 0.00 | 0.79 | 0.79 | 90 | 1007.5 |
| 20260509210329 | 12 | 206 | 12.9 | 12.9 | 0.00 | 0.79 | 0.79 | 91 | 1007.6 |
| 20260509205828 | 12 | 233 | 9.7 | 11.3 | 0.00 | 0.79 | 0.79 | 91 | 1007.6 |
| 20260509205323 | 11 | 224 | 8.0 | 9.7 | 0.00 | 0.79 | 0.79 | 92 | 1007.5 |
| 20260509204820 | 11 | 180 | 8.0 | 8.0 | 0.00 | 0.79 | 0.79 | 92 | 1007.6 |
| 20260509204316 | 11 | 198 | 6.4 | 8.0 | 0.00 | 0.79 | 0.79 | 92 | 1007.7 |
| 20260509203812 | 11 | 215 | 8.0 | 9.7 | 0.00 | 0.79 | 0.79 | 92 | 1007.6 |
| 20260509203310 | 11 | 212 | 9.7 | 11.3 | 0.00 | 0.79 | 0.79 | 92 | 1007.7 |
| 20260509202806 | 11 | 180 | 12.9 | 16.1 | 0.00 | 0.79 | 0.79 | 92 | 1007.7 |
| 20260509202306 | 11 | 212 | 9.7 | 11.3 | 0.00 | 0.79 | 0.79 | 92 | 1007.9 |
| 20260509201801 | 11 | 200 | 9.7 | 12.9 | 0.00 | 0.79 | 0.79 | 92 | 1007.8 |
| 20260509201258 | 11 | 188 | 9.7 | 11.3 | 0.00 | 0.79 | 0.79 | 92 | 1008.0 |
| 20260509200755 | 11 | 176 | 12.9 | 14.5 | 0.00 | 0.79 | 0.79 | 92 | 1007.9 |
| 20260509200250 | 11 | 195 | 9.7 | 12.9 | 0.00 | 0.79 | 0.79 | 92 | 1008.0 |
| 20260509195746 | 11 | 193 | 11.3 | 12.9 | 0.00 | 0.79 | 0.79 | 92 | 1008.1 |
| 20260509195242 | 11 | 212 | 6.4 | 9.7 | 0.00 | 0.79 | 0.79 | 92 | 1008.0 |
| 20260509194736 | 11 | 215 | 12.9 | 12.9 | 0.00 | 0.79 | 0.79 | 93 | 1008.0 |
| 20260509194233 | 11 | 215 | 8.0 | 9.7 | 0.00 | 0.79 | 0.79 | 93 | 1008.2 |
| 20260509193730 | 11 | 215 | 6.4 | 8.0 | 0.00 | 0.79 | 0.79 | 92 | 1008.2 |
| 20260509193229 | 11 | 202 | 9.7 | 9.7 | 0.00 | 0.79 | 0.79 | 92 | 1008.2 |
| 20260509192726 | 11 | 223 | 11.3 | 11.3 | 0.13 | 0.79 | 0.79 | 92 | 1008.3 |
| 20260509192221 | 11 | 202 | 8.0 | 9.7 | 0.30 | 0.79 | 0.79 | 92 | 1008.4 |
| 20260509191716 | 11 | 211 | 6.4 | 8.0 | 0.18 | 0.76 | 0.76 | 91 | 1008.4 |
| 20260509191213 | 11 | 239 | 12.9 | 16.1 | 0.00 | 0.74 | 0.74 | 90 | 1008.6 |
| 20260509190709 | 11 | 214 | 8.0 | 9.7 | 0.00 | 0.74 | 0.74 | 90 | 1008.3 |
| 20260509190207 | 11 | 224 | 8.0 | 9.7 | 0.00 | 0.74 | 0.74 | 89 | 1008.5 |
| 20260509185704 | 11 | 209 | 8.0 | 9.7 | 0.00 | 0.74 | 0.74 | 89 | 1008.5 |
| 20260509185200 | 11 | 220 | 9.7 | 11.3 | 0.00 | 0.74 | 0.74 | 89 | 1008.4 |
| 20260509184658 | 11 | 200 | 8.0 | 9.7 | 0.00 | 0.74 | 0.74 | 89 | 1008.5 |
| 20260509184155 | 11 | 201 | 9.7 | 11.3 | 0.00 | 0.74 | 0.74 | 89 | 1008.4 |
| 20260509183651 | 11 | 211 | 6.4 | 8.0 | 0.00 | 0.74 | 0.74 | 89 | 1008.5 |
| 20260509183146 | 11 | 179 | 9.7 | 11.3 | 0.00 | 0.74 | 0.74 | 89 | 1008.4 |
| 20260509182642 | 11 | 201 | 11.3 | 12.9 | 0.00 | 0.74 | 0.74 | 89 | 1008.3 |
| 20260509182139 | 11 | 210 | 9.7 | 11.3 | 0.00 | 0.74 | 0.74 | 89 | 1008.8 |
| 20260509181637 | 11 | 209 | 14.5 | 16.1 | 0.00 | 0.74 | 0.74 | 89 | 1008.4 |
| 20260509181135 | 11 | 202 | 12.9 | 14.5 | 0.00 | 0.74 | 0.74 | 89 | 1008.4 |
| 20260509180631 | 11 | 217 | 8.0 | 9.7 | 0.00 | 0.74 | 0.74 | 89 | 1008.4 |
| 20260509180128 | 11 | 211 | 11.3 | 14.5 | 0.00 | 0.74 | 0.74 | 90 | 1008.4 |
| 20260509175624 | 11 | 245 | 11.3 | 14.5 | 0.00 | 0.74 | 0.74 | 91 | 1008.5 |
| 20260509175121 | 11 | 219 | 11.3 | 11.3 | 0.00 | 0.74 | 0.74 | 91 | 1008.4 |
| 20260509174616 | 11 | 198 | 14.5 | 16.1 | 0.00 | 0.74 | 0.74 | 92 | 1008.4 |
| 20260509174112 | 10 | 202 | 9.7 | 11.3 | 0.13 | 0.74 | 0.74 | 92 | 1008.3 |
| 20260509173607 | 10 | 220 | 6.4 | 8.0 | 0.13 | 0.74 | 0.74 | 92 | 1008.4 |
| 20260509173103 | 10 | 240 | 3.2 | 4.8 | 0.13 | 0.74 | 0.74 | 92 | 1008.5 |
| 20260509172601 | 11 | 268 | 0.0 | 1.6 | 0.00 | 0.71 | 0.71 | 91 | 1008.2 |
| 20260509172056 | 11 | 250 | 4.8 | 8.0 | 0.00 | 0.71 | 0.71 | 90 | 1008.3 |
| 20260509171552 | 11 | 212 | 8.0 | 9.7 | 0.00 | 0.71 | 0.71 | 91 | 1008.3 |
| 20260509171049 | 11 | 196 | 4.8 | 4.8 | 0.00 | 0.71 | 0.71 | 91 | 1008.4 |
| 20260509170545 | 11 | 182 | 6.4 | 8.0 | 0.00 | 0.71 | 0.71 | 90 | 1008.5 |
| 20260509170041 | 11 | 219 | 6.4 | 8.0 | 0.00 | 0.71 | 0.71 | 90 | 1008.4 |
| 20260509165540 | 11 | 218 | 11.3 | 12.9 | 0.00 | 0.71 | 0.71 | 90 | 1008.4 |
| 20260509165035 | 11 | 224 | 8.0 | 11.3 | 0.00 | 0.71 | 0.71 | 90 | 1008.6 |
| 20260509164532 | 11 | 233 | 3.2 | 3.2 | 0.00 | 0.71 | 0.71 | 89 | 1008.3 |
| 20260509164027 | 11 | 241 | 6.4 | 9.7 | 0.00 | 0.71 | 0.71 | 90 | 1008.4 |
| 20260509163525 | 11 | 212 | 6.4 | 8.0 | 0.00 | 0.71 | 0.71 | 90 | 1008.4 |
| 20260509163020 | 11 | 200 | 6.4 | 8.0 | 0.00 | 0.71 | 0.71 | 90 | 1008.3 |
| 20260509162518 | 11 | 223 | 9.7 | 12.9 | 0.00 | 0.71 | 0.71 | 90 | 1008.5 |
| 20260509162014 | 11 | 231 | 8.0 | 8.0 | 0.00 | 0.71 | 0.71 | 90 | 1008.8 |
| 20260509161510 | 11 | 225 | 4.8 | 8.0 | 0.00 | 0.71 | 0.71 | 89 | 1008.8 |
| 20260509161000 | 11 | 209 | 9.7 | 11.3 | 0.00 | 0.71 | 0.71 | 89 | 1008.9 |
| 20260509160456 | 11 | 190 | 4.8 | 4.8 | 0.00 | 0.71 | 0.71 | 89 | 1008.7 |
| 20260509155956 | 11 | 177 | 9.7 | 11.3 | 0.00 | 0.71 | 0.71 | 89 | 1008.8 |
| 20260509155453 | 11 | 181 | 11.3 | 14.5 | 0.00 | 0.71 | 0.71 | 89 | 1009.2 |
| 20260509154949 | 11 | 216 | 11.3 | 16.1 | 0.00 | 0.71 | 0.71 | 90 | 1008.8 |
| 20260509154445 | 11 | 239 | 6.4 | 8.0 | 0.00 | 0.71 | 0.71 | 90 | 1009.2 |
| 20260509153943 | 11 | 176 | 4.8 | 4.8 | 0.00 | 0.71 | 0.71 | 91 | 1008.9 |
| 20260509153440 | 10 | 179 | 11.3 | 11.3 | 0.18 | 0.71 | 0.71 | 93 | 1008.8 |
| 20260509152937 | 10 | 201 | 3.2 | 3.2 | 0.18 | 0.71 | 0.71 | 94 | 1009.2 |
| 20260509152432 | 10 | 236 | 0.0 | 1.6 | 0.00 | 0.69 | 0.69 | 95 | 1009.4 |
| 20260509151930 | 10 | 249 | 1.6 | 1.6 | 0.13 | 0.69 | 0.69 | 96 | 1009.4 |
| 20260509151426 | 10 | 282 | 0.0 | 0.0 | 0.13 | 0.69 | 0.69 | 96 | 1009.4 |
| 20260509150924 | 10 | 243 | 3.2 | 3.2 | 0.18 | 0.66 | 0.66 | 96 | 1009.6 |
| 20260509150421 | 10 | 313 | 1.6 | 1.6 | 0.18 | 0.66 | 0.66 | 97 | 1009.7 |
| 20260509145919 | 10 | 263 | 0.0 | 0.0 | 0.13 | 0.64 | 0.64 | 96 | 1009.8 |
| 20260509145414 | 10 | 271 | 0.0 | 1.6 | 0.13 | 0.64 | 0.64 | 96 | 1009.7 |
| 20260509144909 | 9 | 268 | 0.0 | 0.0 | 0.18 | 0.61 | 0.61 | 96 | 1009.9 |
| 20260509144406 | 9 | 258 | 0.0 | 0.0 | 0.18 | 0.61 | 0.61 | 96 | 1009.7 |
| 20260509143904 | 9 | 270 | 0.0 | 0.0 | 0.00 | 0.58 | 0.58 | 96 | 1009.7 |
| 20260509143401 | 8 | 320 | 1.6 | 1.6 | 0.18 | 0.58 | 0.58 | 96 | 1009.7 |
| 20260509142857 | 8 | 289 | 1.6 | 3.2 | 0.18 | 0.58 | 0.58 | 96 | 1009.5 |
| 20260509142354 | 8 | 304 | 3.2 | 3.2 | 0.13 | 0.56 | 0.56 | 96 | 1009.7 |
| 20260509141849 | 8 | 298 | 1.6 | 1.6 | 0.13 | 0.56 | 0.56 | 96 | 1009.8 |
| 20260509141347 | 8 | 262 | 1.6 | 1.6 | 0.18 | 0.53 | 0.53 | 97 | 1009.9 |
| 20260509140843 | 8 | 307 | 0.0 | 0.0 | 0.18 | 0.53 | 0.53 | 96 | 1009.7 |
| 20260509140340 | 8 | 115 | 3.2 | 3.2 | 0.13 | 0.51 | 0.51 | 96 | 1009.8 |
| 20260509135838 | 8 | 220 | 1.6 | 1.6 | 0.13 | 0.51 | 0.51 | 96 | 1010.1 |
| 20260509135335 | 8 | 273 | 0.0 | 0.0 | 0.13 | 0.51 | 0.51 | 96 | 1009.8 |
| 20260509134832 | 8 | 304 | 3.2 | 3.2 | 0.00 | 0.48 | 0.48 | 96 | 1009.7 |
| 20260509134329 | 7 | 282 | 0.0 | 0.0 | 0.18 | 0.48 | 0.48 | 96 | 1009.9 |
| 20260509133826 | 7 | 277 | 0.0 | 0.0 | 0.18 | 0.48 | 0.48 | 96 | 1009.9 |
| 20260509133323 | 7 | 301 | 0.0 | 1.6 | 0.00 | 0.46 | 0.46 | 96 | 1010.0 |
| 20260509132822 | 7 | 349 | 0.0 | 0.0 | 0.00 | 0.46 | 0.46 | 96 | 1009.9 |
| 20260509132320 | 7 | 286 | 0.0 | 0.0 | 0.13 | 0.46 | 0.46 | 96 | 1010.0 |
| 20260509131816 | 7 | 52 | 0.0 | 1.6 | 0.13 | 0.46 | 0.46 | 96 | 1010.0 |
| 20260509131313 | 6 | 267 | 0.0 | 1.6 | 0.18 | 0.43 | 0.43 | 96 | 1010.0 |
| 20260509130810 | 6 | 302 | 0.0 | 0.0 | 0.18 | 0.43 | 0.43 | 96 | 1010.0 |
| 20260509130305 | 6 | 212 | 3.2 | 3.2 | 0.00 | 0.41 | 0.41 | 96 | 1010.2 |
| 20260509125802 | 6 | 248 | 0.0 | 1.6 | 0.13 | 0.41 | 0.41 | 95 | 1010.2 |
| 20260509125259 | 6 | 292 | 0.0 | 0.0 | 0.13 | 0.41 | 0.41 | 95 | 1010.2 |
| 20260509124755 | 6 | 304 | 1.6 | 1.6 | 0.18 | 0.38 | 0.38 | 95 | 1010.2 |
| 20260509124252 | 6 | 260 | 0.0 | 0.0 | 0.30 | 0.38 | 0.38 | 95 | 1010.2 |
| 20260509123750 | 6 | 253 | 0.0 | 0.0 | 0.13 | 0.36 | 0.36 | 95 | 1010.3 |
| 20260509123247 | 6 | 267 | 0.0 | 0.0 | 0.00 | 0.33 | 0.33 | 95 | 1010.2 |
| 20260509122742 | 6 | 249 | 0.0 | 0.0 | 0.18 | 0.33 | 0.33 | 95 | 1010.1 |
| 20260509122240 | 6 | 253 | 0.0 | 0.0 | 0.18 | 0.33 | 0.33 | 95 | 1010.2 |
| 20260509121737 | 6 | 280 | 0.0 | 0.0 | 0.18 | 0.30 | 0.30 | 95 | 1010.3 |
| 20260509121234 | 5 | 284 | 0.0 | 0.0 | 0.18 | 0.30 | 0.30 | 95 | 1010.4 |
| 20260509120732 | 5 | 288 | 0.0 | 0.0 | 0.13 | 0.28 | 0.28 | 95 | 1010.5 |
| 20260509120229 | 5 | 295 | 0.0 | 0.0 | 0.13 | 0.28 | 0.28 | 95 | 1010.4 |
| 20260509115727 | 5 | 348 | 1.6 | 1.6 | 0.18 | 0.25 | 0.25 | 95 | 1010.3 |
| 20260509115224 | 5 | 302 | 0.0 | 0.0 | 0.30 | 0.25 | 0.25 | 94 | 1010.4 |
| 20260509114722 | 5 | 91 | 1.6 | 1.6 | 0.13 | 0.23 | 0.23 | 94 | 1010.3 |
| 20260509114221 | 5 | 90 | 1.6 | 3.2 | 0.30 | 0.23 | 0.23 | 94 | 1010.5 |
| 20260509113719 | 5 | 73 | 1.6 | 1.6 | 0.30 | 0.20 | 0.20 | 94 | 1010.4 |
| 20260509113216 | 5 | 224 | 0.0 | 1.6 | 0.30 | 0.18 | 0.18 | 94 | 1010.3 |
| 20260509112713 | 5 | 315 | 0.0 | 0.0 | 0.30 | 0.15 | 0.15 | 94 | 1010.4 |
| 20260509112210 | 5 | 332 | 1.6 | 1.6 | 0.13 | 0.13 | 0.13 | 94 | 1010.3 |
| 20260509111706 | 5 | 312 | 0.0 | 0.0 | 0.30 | 0.13 | 0.13 | 94 | 1010.3 |
| 20260509111203 | 5 | 293 | 0.0 | 0.0 | 0.18 | 0.10 | 0.10 | 94 | 1010.3 |
| 20260509110701 | 5 | 284 | 0.0 | 0.0 | 0.13 | 0.08 | 0.08 | 94 | 1010.2 |
| 20260509110157 | 5 | 273 | 0.0 | 0.0 | 0.13 | 0.08 | 0.08 | 94 | 1010.4 |
| 20260509105655 | 5 | 279 | 0.0 | 0.0 | 0.00 | 0.05 | 0.05 | 94 | 1010.4 |
| 20260509105153 | 5 | 269 | 0.0 | 0.0 | 0.00 | 0.05 | 0.05 | 94 | 1010.5 |
| 20260509104650 | 5 | 260 | 0.0 | 0.0 | 0.00 | 0.05 | 0.05 | 94 | 1010.4 |
| 20260509104147 | 5 | 260 | 0.0 | 0.0 | 0.18 | 0.05 | 0.05 | 94 | 1010.4 |
| 20260509103645 | 5 | 258 | 0.0 | 0.0 | 0.18 | 0.05 | 0.05 | 93 | 1010.5 |
| 20260509103142 | 5 | 278 | 0.0 | 0.0 | 0.00 | 0.03 | 0.03 | 93 | 1010.4 |
| 20260509102640 | 5 | 278 | 1.6 | 1.6 | 0.00 | 0.03 | 0.03 | 93 | 1010.3 |
| 20260509102136 | 5 | 279 | 1.6 | 1.6 | 0.00 | 0.03 | 0.03 | 93 | 1010.3 |
| 20260509101633 | 4 | 296 | 0.0 | 0.0 | 0.00 | 0.03 | 0.03 | 93 | 1010.1 |
| 20260509101130 | 4 | 95 | 1.6 | 1.6 | 0.00 | 0.03 | 0.03 | 93 | 1010.0 |
| 20260509100627 | 4 | 178 | 1.6 | 1.6 | 0.00 | 0.03 | 0.03 | 93 | 1010.4 |
| 20260509100124 | 4 | 211 | 1.6 | 1.6 | 0.00 | 0.03 | 0.03 | 93 | 1010.3 |
| 20260509095621 | 4 | 243 | 0.0 | 0.0 | 0.00 | 0.03 | 0.03 | 93 | 1010.3 |
| 20260509095118 | 4 | 297 | 0.0 | 0.0 | 0.00 | 0.03 | 0.03 | 93 | 1010.3 |
| 20260509094614 | 4 | 320 | 0.0 | 0.0 | 0.00 | 0.03 | 0.03 | 93 | 1009.9 |
| 20260509094111 | 4 | 251 | 1.6 | 1.6 | 0.00 | 0.03 | 0.03 | 92 | 1010.0 |
| 20260509093610 | 4 | 283 | 0.0 | 0.0 | 0.00 | 0.03 | 0.03 | 92 | 1010.1 |
| 20260509093106 | 4 | 288 | 0.0 | 0.0 | 0.00 | 0.03 | 0.03 | 92 | 1010.4 |
| 20260509092604 | 4 | 331 | 1.6 | 1.6 | 0.00 | 0.03 | 0.03 | 92 | 1010.2 |
| 20260509092103 | 4 | 301 | 0.0 | 0.0 | 0.00 | 0.03 | 0.03 | 92 | 1010.3 |
| 20260509091600 | 4 | 297 | 0.0 | 0.0 | 0.00 | 0.03 | 0.03 | 92 | 1010.2 |
| 20260509091056 | 4 | 336 | 1.6 | 1.6 | 0.00 | 0.03 | 0.03 | 92 | 1010.1 |
| 20260509090554 | 4 | 3 | 1.6 | 1.6 | 0.00 | 0.03 | 0.03 | 91 | 1010.4 |
| 20260509090052 | 4 | 42 | 3.2 | 3.2 | 0.00 | 0.03 | 0.03 | 91 | 1010.3 |
| 20260509085548 | 4 | 334 | 0.0 | 1.6 | 0.00 | 0.03 | 0.03 | 91 | 1010.7 |
| 20260509085044 | 4 | 327 | 0.0 | 0.0 | 0.00 | 0.03 | 0.03 | 91 | 1010.6 |
| 20260509084542 | 4 | 337 | 1.6 | 1.6 | 0.13 | 0.03 | 0.03 | 91 | 1010.5 |
| 20260509084039 | 4 | 35 | 3.2 | 3.2 | 0.13 | 0.03 | 0.03 | 91 | 1010.4 |
| 20260509083536 | 4 | 349 | 1.6 | 1.6 | 0.00 | 0.00 | 0.00 | 91 | 1010.6 |
| 20260509083032 | 4 | 306 | 1.6 | 1.6 | 0.00 | 0.00 | 0.00 | 91 | 1010.8 |
| 20260509082530 | 4 | 287 | 0.0 | 0.0 | 0.00 | 0.00 | 0.00 | 91 | 1010.7 |
| 20260509082027 | 5 | 276 | 0.0 | 1.6 | 0.00 | 0.00 | 0.00 | 91 | 1010.9 |
| 20260509081524 | 5 | 279 | 0.0 | 0.0 | 0.00 | 0.00 | 0.00 | 91 | 1010.9 |
| 20260509081021 | 4 | 287 | 0.0 | 0.0 | 0.00 | 0.00 | 0.00 | 91 | 1010.7 |
| 20260509080519 | 4 | 282 | 0.0 | 0.0 | 0.00 | 0.00 | 0.00 | 91 | 1011.1 |
| 20260509080017 | 4 | 7 | 1.6 | 1.6 | 0.00 | 0.00 | 0.00 | 91 | 1010.8 |
| 20260509075514 | 4 | 58 | 1.6 | 3.2 | 0.00 | 0.00 | 0.00 | 91 | 1010.9 |
| 20260509075012 | 4 | 294 | 0.0 | 0.0 | 0.00 | 0.00 | 0.00 | 91 | 1010.8 |
| 20260509074509 | 4 | 303 | 0.0 | 0.0 | 0.00 | 0.00 | 0.00 | 90 | 1011.1 |
| 20260509074005 | 4 | 1 | 1.6 | 1.6 | 0.00 | 0.00 | 0.00 | 90 | 1010.8 |
| 20260509073501 | 4 | 328 | 0.0 | 1.6 | 0.00 | 0.00 | 0.00 | 90 | 1010.9 |
| 20260509072958 | 4 | 10 | 1.6 | 1.6 | 0.00 | 0.00 | 0.00 | 90 | 1010.8 |
| 20260509072455 | 4 | 71 | 1.6 | 3.2 | 0.00 | 0.00 | 0.00 | 90 | 1011.0 |
| 20260509071952 | 4 | 331 | 0.0 | 1.6 | 0.00 | 0.00 | 0.00 | 90 | 1010.6 |
| 20260509071448 | 4 | 294 | 0.0 | 0.0 | 0.00 | 0.00 | 0.00 | 90 | 1010.8 |
| 20260509070946 | 4 | 294 | 0.0 | 0.0 | 0.00 | 0.00 | 0.00 | 89 | 1010.9 |
| 20260509070443 | 4 | 343 | 0.0 | 0.0 | 0.00 | 0.00 | 0.00 | 89 | 1010.4 |
| 20260509065938 | 4 | 67 | 3.2 | 3.2 | 0.00 | 0.00 | 0.00 | 88 | 1010.6 |
| 20260509065434 | 4 | 314 | 0.0 | 1.6 | 0.00 | 0.00 | 0.00 | 88 | 1010.9 |
| 20260509064931 | 4 | 276 | 0.0 | 0.0 | 0.00 | 0.00 | 0.00 | 88 | 1010.7 |
| 20260509064429 | 4 | 276 | 0.0 | 0.0 | 0.00 | 0.00 | 0.00 | 88 | 1011.0 |
| 20260509063926 | 4 | 276 | 0.0 | 0.0 | 0.00 | 0.00 | 0.00 | 88 | 1010.9 |
| 20260509063422 | 4 | 276 | 0.0 | 0.0 | 0.00 | 0.00 | 0.00 | 87 | 1010.9 |
| 20260509062919 | 4 | 287 | 0.0 | 1.6 | 0.00 | 0.00 | 0.00 | 86 | 1011.0 |
| 20260509062416 | 4 | 294 | 0.0 | 1.6 | 0.00 | 0.00 | 0.00 | 86 | 1011.0 |
| 20260509061914 | 4 | 293 | 0.0 | 0.0 | 0.00 | 0.00 | 0.00 | 86 | 1011.2 |
| 20260509061412 | 4 | 293 | 0.0 | 0.0 | 0.00 | 0.00 | 0.00 | 87 | 1011.2 |
| 20260509060908 | 4 | 286 | 0.0 | 0.0 | 0.00 | 0.00 | 0.00 | 87 | 1011.3 |
| 20260509060405 | 4 | 319 | 1.6 | 1.6 | 0.00 | 0.00 | 0.00 | 87 | 1011.5 |
| 20260509055900 | 4 | 337 | 1.6 | 1.6 | 0.00 | 0.00 | 0.00 | 87 | 1011.4 |
| 20260509055355 | 4 | 308 | 0.0 | 0.0 | 0.00 | 0.00 | 0.00 | 87 | 1011.4 |
| 20260509054853 | 4 | 319 | 0.0 | 0.0 | 0.00 | 0.00 | 0.00 | 87 | 1011.4 |
| 20260509054350 | 4 | 341 | 1.6 | 1.6 | 0.00 | 0.00 | 0.00 | 87 | 1011.5 |
| 20260509053848 | 4 | 354 | 0.0 | 0.0 | 0.00 | 0.00 | 0.00 | 87 | 1011.6 |
| 20260509053345 | 4 | 251 | 0.0 | 0.0 | 0.00 | 0.00 | 0.00 | 87 | 1011.5 |
| 20260509052843 | 4 | 244 | 0.0 | 0.0 | 0.00 | 0.00 | 0.00 | 87 | 1011.6 |
| 20260509052340 | 4 | 307 | 0.0 | 1.6 | 0.00 | 0.00 | 0.00 | 88 | 1011.5 |
| 20260509051838 | 4 | 265 | 1.6 | 1.6 | 0.00 | 0.00 | 0.00 | 88 | 1011.5 |
| 20260509051336 | 4 | 57 | 6.4 | 8.0 | 0.00 | 0.00 | 0.00 | 89 | 1011.4 |
| 20260509050832 | 3 | 15 | 1.6 | 1.6 | 0.00 | 0.00 | 0.00 | 89 | 1011.5 |
| 20260509050329 | 3 | 314 | 0.0 | 0.0 | 0.00 | 0.00 | 0.00 | 89 | 1011.5 |
| 20260509045826 | 3 | 296 | 0.0 | 0.0 | 0.00 | 0.00 | 0.00 | 89 | 1011.9 |
| 20260509045323 | 3 | 296 | 0.0 | 0.0 | 0.00 | 0.00 | 0.00 | 90 | 1011.9 |
| 20260509044820 | 3 | 296 | 0.0 | 0.0 | 0.00 | 0.00 | 0.00 | 90 | 1011.6 |
| 20260509044318 | 3 | 295 | 0.0 | 0.0 | 0.00 | 0.00 | 0.00 | 90 | 1011.8 |
| 20260509043814 | 3 | 295 | 0.0 | 0.0 | 0.00 | 0.00 | 0.00 | 90 | 1011.5 |
| 20260509043310 | 3 | 352 | 1.6 | 1.6 | 0.00 | 0.00 | 0.00 | 90 | 1011.7 |
| 20260509042806 | 3 | 348 | 1.6 | 1.6 | 0.00 | 0.00 | 0.00 | 90 | 1011.8 |
| 20260509042306 | 3 | 304 | 1.6 | 1.6 | 0.00 | 0.00 | 0.00 | 90 | 1011.9 |
| 20260509041759 | 3 | 292 | 0.0 | 0.0 | 0.00 | 0.00 | 0.00 | 90 | 1012.0 |
| 20260509041256 | 3 | 252 | 0.0 | 0.0 | 0.00 | 0.00 | 0.00 | 91 | 1011.8 |
| 20260509040755 | 3 | 206 | 1.6 | 1.6 | 0.00 | 0.00 | 0.00 | 91 | 1011.8 |
| 20260509040251 | 3 | 174 | 1.6 | 1.6 | 0.00 | 0.00 | 0.00 | 91 | 1011.8 |
| 20260509035749 | 3 | 234 | 0.0 | 0.0 | 0.00 | 0.13 | 0.13 | 91 | 1011.9 |
| 20260509035245 | 3 | 303 | 1.6 | 1.6 | 0.00 | 0.13 | 0.13 | 91 | 1011.8 |
| 20260509034742 | 3 | 286 | 1.6 | 1.6 | 0.00 | 0.13 | 0.13 | 91 | 1011.8 |
| 20260509034240 | 3 | 348 | 1.6 | 1.6 | 0.00 | 0.13 | 0.13 | 91 | 1011.6 |
| 20260509033736 | 3 | 296 | 0.0 | 0.0 | 0.00 | 0.13 | 0.13 | 91 | 1011.6 |
| 20260509033233 | 3 | 315 | 0.0 | 0.0 | 0.00 | 0.13 | 0.13 | 90 | 1011.9 |
| 20260509032731 | 4 | 315 | 0.0 | 1.6 | 0.00 | 0.13 | 0.13 | 90 | 1011.8 |
| 20260509032227 | 4 | 315 | 0.0 | 1.6 | 0.00 | 0.13 | 0.13 | 90 | 1011.7 |
| 20260509031725 | 4 | 303 | 0.0 | 0.0 | 0.00 | 0.13 | 0.13 | 89 | 1011.8 |
| 20260509031222 | 4 | 287 | 0.0 | 0.0 | 0.00 | 0.13 | 0.13 | 89 | 1011.9 |
| 20260509030720 | 4 | 287 | 0.0 | 0.0 | 0.00 | 0.13 | 0.13 | 88 | 1011.8 |
| 20260509030217 | 5 | 316 | 1.6 | 1.6 | 0.00 | 0.13 | 0.13 | 88 | 1011.7 |
| 20260509025714 | 5 | 314 | 1.6 | 1.6 | 0.00 | 0.13 | 0.13 | 87 | 1011.6 |
| 20260509025210 | 5 | 295 | 1.6 | 1.6 | 0.00 | 0.13 | 0.13 | 87 | 1011.9 |
| 20260509024705 | 5 | 247 | 0.0 | 0.0 | 0.00 | 0.13 | 0.13 | 87 | 1012.0 |
| 20260509024201 | 5 | 247 | 0.0 | 1.6 | 0.00 | 0.13 | 0.13 | 87 | 1011.7 |
| 20260509023659 | 5 | 287 | 0.0 | 0.0 | 0.00 | 0.13 | 0.13 | 87 | 1011.8 |
| 20260509023156 | 5 | 322 | 1.6 | 1.6 | 0.00 | 0.13 | 0.13 | 86 | 1011.6 |